"Period start","avg(HW err(1)/warn(2) (#))","avg(Visibility (m))","avg(Weather code (#))","avg(Precip intensity (mm/h))","min(HW err(1)/warn(2) (#))","max(HW err(1)/warn(2) (#))","std(HW err(1)/warn(2) (#))","med(HW err(1)/warn(2) (#))","min(Visibility (m))","max(Visibility (m))","std(Visibility (m))","med(Visibility (m))","min(Weather code (#))","max(Weather code (#))","std(Weather code (#))","med(Weather code (#))","min(Precip intensity (mm/h))","max(Precip intensity (mm/h))","std(Precip intensity (mm/h))","med(Precip intensity (mm/h))"
2014-05-12 00:00:00,2,3169,64,0.02,2,2,0,2,1724,4423,799,3108,10,77,27,77,0.00,0.10,0.03,0.00
2014-05-12 00:10:00,2,4526,10,0.00,2,2,0,2,2315,5993,1070,4776,10,10,0,10,0.00,0.00,0.00,0.00
2014-05-12 00:20:00,2,4166,10,0.00,2,2,0,2,3321,5094,505,4246,10,10,0,10,0.00,0.00,0.00,0.00
2014-05-12 00:30:00,2,3594,10,0.00,2,2,0,2,2627,4999,726,3568,10,10,0,10,0.00,0.00,0.00,0.00
2014-05-12 00:40:00,2,3931,10,0.00,2,2,0,2,3071,4675,499,3959,10,10,0,10,0.00,0.00,0.00,0.00
2014-05-12 00:50:00,2,3205,10,0.00,2,2,0,2,2234,5233,990,2711,10,10,0,10,0.00,0.00,0.00,0.00
2014-05-12 01:00:00,2,2552,10,0.00,2,2,0,2,1564,4103,745,2451,10,10,0,10,0.00,0.00,0.00,0.00
2014-05-12 01:10:00,2,3018,10,0.00,2,2,0,2,1659,4336,791,3146,10,10,0,10,0.00,0.00,0.00,0.00
2014-05-12 01:20:00,2,3475,10,0.00,2,2,0,2,2006,4819,934,3753,10,10,0,10,0.00,0.00,0.00,0.00
2014-05-12 01:30:00,2,2892,10,0.00,2,2,0,2,1732,3628,625,3072,10,10,0,10,0.00,0.00,0.00,0.00
2014-05-12 01:40:00,2,2681,36,0.01,2,2,0,2,1161,4736,1106,2729,10,77,31,10,0.00,0.10,0.03,0.00
2014-05-12 01:50:00,2,3559,30,0.01,2,2,0,2,2064,4820,914,3608,10,77,31,10,0.00,0.05,0.02,0.00
2014-05-12 02:00:00,2,3995,10,0.00,2,2,0,2,2470,5973,1133,3781,10,10,0,10,0.00,0.00,0.00,0.00
2014-05-12 02:10:00,2,4104,10,0.00,2,2,0,2,2190,5446,1080,4586,10,10,0,10,0.00,0.00,0.00,0.00
2014-05-12 02:20:00,2,3847,10,0.00,2,2,0,2,2575,6426,1417,3052,10,10,0,10,0.00,0.00,0.00,0.00
2014-05-12 02:30:00,2,2965,28,0.04,2,2,0,2,1396,4608,876,2796,10,71,28,10,0.00,0.35,0.10,0.00
2014-05-12 02:40:00,2,3828,16,0.00,2,2,0,2,2314,5075,651,3796,10,71,18,10,0.00,0.00,0.00,0.00
2014-05-12 02:50:00,2,3807,10,0.00,2,2,0,2,2191,5103,794,3880,10,10,0,10,0.00,0.00,0.00,0.00
2014-05-12 03:00:00,2,3602,10,0.00,2,2,0,2,2818,4557,604,3590,10,10,0,10,0.00,0.00,0.00,0.00
2014-05-12 03:10:00,2,4534,10,0.00,2,2,0,2,3078,6187,1027,4692,10,10,0,10,0.00,0.00,0.00,0.00
2014-05-12 03:20:00,2,2625,10,0.00,2,2,0,2,1165,4721,1227,2440,10,10,0,10,0.00,0.00,0.00,0.00
2014-05-12 03:30:00,2,2909,10,0.00,2,2,0,2,2118,3984,709,2936,10,10,0,10,0.00,0.00,0.00,0.00
2014-05-12 03:40:00,2,4804,10,0.00,2,2,0,2,4035,6593,758,4582,10,10,0,10,0.00,0.00,0.00,0.00
2014-05-12 03:50:00,2,4769,10,0.00,2,2,0,2,3767,5860,752,4680,10,10,0,10,0.00,0.00,0.00,0.00
2014-05-12 04:00:00,2,6553,10,0.00,2,2,0,2,3211,9366,1620,6422,10,10,0,10,0.00,0.00,0.00,0.00
2014-05-12 04:10:00,2,8610,10,0.00,2,2,0,2,4142,15038,2858,8418,10,10,0,10,0.00,0.00,0.00,0.00
2014-05-12 04:20:00,2,11394,6,0.00,2,2,0,2,5154,18777,3567,11001,0,10,5,10,0.00,0.00,0.00,0.00
2014-05-12 04:30:00,2,14745,0,0.00,2,2,0,2,8464,23727,5107,12160,0,0,0,0,0.00,0.00,0.00,0.00
2014-05-12 04:40:00,2,14872,0,0.00,2,2,0,2,11312,19011,2311,15116,0,0,0,0,0.00,0.00,0.00,0.00
2014-05-12 04:50:00,2,9817,0,0.00,2,2,0,2,6528,19405,3485,9100,0,0,0,0,0.00,0.00,0.00,0.00
2014-05-12 05:00:00,2,5302,59,0.14,2,2,0,2,3481,7481,1184,5186,10,71,24,71,0.00,0.50,0.15,0.10
2014-05-12 05:10:00,2,7515,16,0.00,2,2,0,2,3605,14282,3101,7412,10,71,18,10,0.00,0.00,0.00,0.00
2014-05-12 05:20:00,2,10764,10,0.00,2,2,0,2,7554,16047,2525,10459,10,10,0,10,0.00,0.00,0.00,0.00
2014-05-12 05:30:00,2,8661,8,0.00,2,2,0,2,3829,17611,4210,6926,0,10,4,10,0.00,0.00,0.00,0.00
2014-05-12 05:40:00,2,2017,71,1.85,2,2,0,2,921,4042,996,1744,71,71,0,71,0.00,4.80,1.67,1.33
2014-05-12 05:50:00,2,2567,50,0.01,2,2,0,2,1415,4335,841,2410,10,71,27,71,0.00,0.05,0.02,0.00
2014-05-12 06:00:00,2,4228,10,0.00,2,2,0,2,2376,7600,1676,3768,10,10,0,10,0.00,0.00,0.00,0.00
2014-05-12 06:10:00,2,3976,10,0.00,2,2,0,2,2854,5095,697,3848,10,10,0,10,0.00,0.00,0.00,0.00
2014-05-12 06:20:00,2,5921,10,0.00,2,2,0,2,3920,8255,1338,5488,10,10,0,10,0.00,0.00,0.00,0.00
2014-05-12 06:30:00,2,4651,10,0.00,2,2,0,2,3073,6704,965,4596,10,10,0,10,0.00,0.00,0.00,0.00
2014-05-12 06:40:00,2,4347,10,0.00,2,2,0,2,3415,5792,716,4264,10,10,0,10,0.00,0.00,0.00,0.00
2014-05-12 06:50:00,2,3702,34,0.42,2,2,0,2,1060,7312,1844,3306,10,71,27,25,0.00,2.60,0.84,0.00
2014-05-12 07:00:00,2,3821,22,0.30,2,2,0,2,1637,5909,1359,3967,10,71,24,10,0.00,2.50,0.75,0.00
2014-05-12 07:10:00,2,5886,40,0.58,2,2,0,2,1351,11620,3074,6014,10,71,30,40,0.00,2.60,0.92,0.00
2014-05-12 07:20:00,2,7187,28,0.01,2,2,0,2,3942,10429,2018,6876,10,71,28,10,0.00,0.05,0.02,0.00
2014-05-12 07:30:00,2,6590,16,0.02,2,2,0,2,3267,8489,1459,6585,10,40,12,10,0.00,0.15,0.05,0.00
2014-05-12 07:40:00,2,4550,69,0.86,2,2,0,2,1148,8714,2133,4680,41,77,10,71,0.00,4.55,1.58,0.08
2014-05-12 07:50:00,2,4628,52,0.01,2,2,0,2,2738,9677,2080,3563,10,77,26,56,0.00,0.05,0.02,0.00
2014-05-12 08:00:00,2,5704,30,0.02,2,2,0,2,2943,9828,1973,6086,10,77,30,10,0.00,0.10,0.03,0.00
2014-05-12 08:10:00,2,9496,10,0.00,2,2,0,2,4336,19912,4417,8078,10,10,0,10,0.00,0.00,0.00,0.00
2014-05-12 08:20:00,2,5776,25,0.03,2,2,0,2,4774,6887,692,5474,10,71,21,10,0.00,0.20,0.06,0.00
2014-05-12 08:30:00,2,3827,72,0.14,2,2,0,2,2100,5567,1281,4196,71,77,2,71,0.00,0.45,0.12,0.10
2014-05-12 08:40:00,2,3950,72,0.16,2,2,0,2,2656,7114,1282,3722,71,77,2,71,0.00,0.80,0.23,0.08
2014-05-12 08:50:00,2,15138,50,0.03,2,2,0,2,4344,38181,10482,11986,10,77,33,77,0.00,0.15,0.05,0.00
2014-05-12 09:00:00,2,10225,10,0.02,2,2,0,2,3164,19222,4799,10226,0,71,21,0,0.00,0.20,0.06,0.00
2014-05-12 09:10:00,2,4491,53,0.39,2,2,0,2,2249,5686,1185,5046,10,77,28,71,0.00,1.80,0.69,0.05
2014-05-12 09:20:00,2,1519,72,4.54,2,2,0,2,620,3411,824,1340,71,77,2,71,0.05,9.70,2.90,4.28
2014-05-12 09:30:00,2,7683,71,0.92,2,2,0,2,1290,13351,3887,8756,71,71,0,71,0.00,4.70,1.58,0.08
2014-05-12 09:40:00,2,15115,28,0.00,2,2,0,2,12826,17736,1585,15282,0,71,35,0,0.00,0.00,0.00,0.00
2014-05-12 09:50:00,2,11163,7,0.01,2,2,0,2,3913,19502,4522,11059,0,71,21,0,0.00,0.05,0.02,0.00
2014-05-12 10:00:00,2,6713,71,0.20,2,2,0,2,3302,10176,2106,7173,71,71,0,71,0.00,1.05,0.31,0.05
2014-05-12 10:10:00,2,7927,68,0.21,2,2,0,2,3157,14608,3267,7764,41,71,9,71,0.00,1.10,0.34,0.05
2014-05-12 10:20:00,2,6212,63,0.18,2,2,0,2,2381,9324,2003,6314,41,77,18,77,0.00,1.30,0.39,0.00
2014-05-12 10:30:00,2,7790,30,0.00,2,2,0,2,5363,10898,1705,7527,10,71,29,10,0.00,0.00,0.00,0.00
2014-05-12 10:40:00,2,4904,53,0.63,2,2,0,2,1590,9284,3031,2834,10,77,31,71,0.00,2.10,0.72,0.30
2014-05-12 10:50:00,2,4036,65,0.82,2,2,0,2,1153,7477,1844,3610,10,71,18,71,0.00,3.20,1.02,0.38
2014-05-12 11:00:00,2,16655,10,0.00,2,2,0,2,8558,28189,6980,12624,10,10,0,10,0.00,0.00,0.00,0.00
2014-05-12 11:10:00,2,15717,1,0.00,2,2,0,2,6726,25469,5611,15502,0,10,3,0,0.00,0.00,0.00,0.00
2014-05-12 11:20:00,2,6491,31,0.03,2,2,0,2,3295,13098,3329,5212,0,77,36,5,0.00,0.15,0.05,0.00
2014-05-12 11:30:00,2,20424,44,0.01,2,2,0,2,5196,32532,9232,22622,10,77,34,44,0.00,0.15,0.05,0.00
2014-05-12 11:40:00,2,39958,1,0.00,2,2,0,2,28266,50000,7025,42288,0,10,3,0,0.00,0.00,0.00,0.00
2014-05-12 11:50:00,2,37703,0,0.00,2,2,0,2,29814,50000,5896,35132,0,0,0,0,0.00,0.00,0.00,0.00
2014-05-12 12:00:00,2,28792,0,0.00,2,2,0,2,18057,41491,7083,29718,0,0,0,0,0.00,0.00,0.00,0.00
2014-05-12 12:10:00,2,38036,0,0.00,2,2,0,2,29556,45864,4822,38114,0,0,0,0,0.00,0.00,0.00,0.00
2014-05-12 12:20:00,2,37030,0,0.00,2,2,0,2,27871,43722,4504,38016,0,0,0,0,0.00,0.00,0.00,0.00
2014-05-12 12:30:00,2,39312,0,0.00,2,2,0,2,32064,47469,4586,39610,0,0,0,0,0.00,0.00,0.00,0.00
2014-05-12 12:40:00,2,39713,0,0.00,2,2,0,2,19251,49571,8255,40720,0,0,0,0,0.00,0.00,0.00,0.00
2014-05-12 12:50:00,2,47816,0,0.00,2,2,0,2,39937,50000,3525,49930,0,0,0,0,0.00,0.00,0.00,0.00
2014-05-12 13:00:00,2,49352,0,0.00,2,2,0,2,47459,50000,935,49966,0,0,0,0,0.00,0.00,0.00,0.00
2014-05-12 13:10:00,2,50000,0,0.00,2,2,0,2,50000,50000,0,50000,0,0,0,0,0.00,0.00,0.00,0.00
2014-05-12 13:20:00,2,49595,0,0.00,2,2,0,2,47803,50000,710,50000,0,0,0,0,0.00,0.00,0.00,0.00
2014-05-12 13:30:00,2,49417,0,0.00,2,2,0,2,46290,50000,1123,50000,0,0,0,0,0.00,0.00,0.00,0.00
2014-05-12 13:40:00,2,49977,0,0.00,2,2,0,2,49771,50000,69,50000,0,0,0,0,0.00,0.00,0.00,0.00
2014-05-12 13:50:00,2,50000,0,0.00,2,2,0,2,50000,50000,0,50000,0,0,0,0,0.00,0.00,0.00,0.00
2014-05-12 14:00:00,2,50000,0,0.00,2,2,0,2,50000,50000,0,50000,0,0,0,0,0.00,0.00,0.00,0.00
2014-05-12 14:10:00,2,50000,0,0.00,2,2,0,2,50000,50000,0,50000,0,0,0,0,0.00,0.00,0.00,0.00
2014-05-12 14:20:00,2,49839,0,0.00,2,2,0,2,48386,50000,484,50000,0,0,0,0,0.00,0.00,0.00,0.00
2014-05-12 14:30:00,2,49530,0,0.00,2,2,0,2,47861,50000,678,49870,0,0,0,0,0.00,0.00,0.00,0.00
2014-05-12 14:40:00,2,49364,0,0.00,2,2,0,2,45978,50000,1327,50000,0,0,0,0,0.00,0.00,0.00,0.00
2014-05-12 14:50:00,2,49758,0,0.00,2,2,0,2,48437,50000,507,50000,0,0,0,0,0.00,0.00,0.00,0.00
2014-05-12 15:00:00,2,49399,0,0.00,2,2,0,2,43992,50000,1802,50000,0,0,0,0,0.00,0.00,0.00,0.00
2014-05-12 15:10:00,2,49195,0,0.00,2,2,0,2,45843,50000,1447,50000,0,0,0,0,0.00,0.00,0.00,0.00
2014-05-12 15:20:00,2,50000,0,0.00,2,2,0,2,50000,50000,0,50000,0,0,0,0,0.00,0.00,0.00,0.00
2014-05-12 15:30:00,2,50000,0,0.00,2,2,0,2,50000,50000,0,50000,0,0,0,0,0.00,0.00,0.00,0.00
2014-05-12 15:40:00,2,49796,0,0.00,2,2,0,2,47955,50000,614,50000,0,0,0,0,0.00,0.00,0.00,0.00
2014-05-12 15:50:00,2,49915,0,0.00,2,2,0,2,49148,50000,256,50000,0,0,0,0,0.00,0.00,0.00,0.00
2014-05-12 16:00:00,2,49537,0,0.00,2,2,0,2,45922,50000,1216,50000,0,0,0,0,0.00,0.00,0.00,0.00
2014-05-12 16:10:00,2,50000,0,0.00,2,2,0,2,50000,50000,0,50000,0,0,0,0,0.00,0.00,0.00,0.00
2014-05-12 16:20:00,2,50000,0,0.00,2,2,0,2,50000,50000,0,50000,0,0,0,0,0.00,0.00,0.00,0.00
2014-05-12 16:30:00,2,49817,0,0.00,2,2,0,2,48167,50000,550,50000,0,0,0,0,0.00,0.00,0.00,0.00
2014-05-12 16:40:00,2,48833,0,0.00,2,2,0,2,45420,50000,1590,50000,0,0,0,0,0.00,0.00,0.00,0.00
2014-05-12 16:50:00,2,48027,0,0.00,2,2,0,2,43598,50000,2240,48884,0,0,0,0,0.00,0.00,0.00,0.00
2014-05-12 17:00:00,2,49256,0,0.00,2,2,0,2,44851,50000,1541,49960,0,0,0,0,0.00,0.00,0.00,0.00
2014-05-12 17:10:00,2,50000,0,0.00,2,2,0,2,50000,50000,0,50000,0,0,0,0,0.00,0.00,0.00,0.00
2014-05-12 17:20:00,2,45794,0,0.00,2,2,0,2,38467,50000,3796,45731,0,0,0,0,0.00,0.00,0.00,0.00
2014-05-12 17:30:00,2,49979,0,0.00,2,2,0,2,49872,50000,43,50000,0,0,0,0,0.00,0.00,0.00,0.00
2014-05-12 17:40:00,2,45149,0,0.00,2,2,0,2,41170,50000,2860,44532,0,0,0,0,0.00,0.00,0.00,0.00
2014-05-12 17:50:00,2,49337,0,0.00,2,2,0,2,46725,50000,1029,49920,0,0,0,0,0.00,0.00,0.00,0.00
2014-05-12 18:00:00,2,48103,0,0.00,2,2,0,2,42924,50000,2213,49139,0,0,0,0,0.00,0.00,0.00,0.00
2014-05-12 18:10:00,2,45604,0,0.00,2,2,0,2,32408,50000,5361,47870,0,0,0,0,0.00,0.00,0.00,0.00
2014-05-12 18:20:00,2,48562,0,0.00,2,2,0,2,43940,50000,2312,50000,0,0,0,0,0.00,0.00,0.00,0.00
2014-05-12 18:30:00,2,49967,0,0.00,2,2,0,2,49793,50000,68,50000,0,0,0,0,0.00,0.00,0.00,0.00
2014-05-12 18:40:00,2,49445,0,0.00,2,2,0,2,45555,50000,1320,50000,0,0,0,0,0.00,0.00,0.00,0.00
2014-05-12 18:50:00,2,48893,0,0.00,2,2,0,2,42246,50000,2426,50000,0,0,0,0,0.00,0.00,0.00,0.00
2014-05-12 19:00:00,2,49856,0,0.00,2,2,0,2,48556,50000,433,50000,0,0,0,0,0.00,0.00,0.00,0.00
2014-05-12 19:10:00,2,48642,0,0.00,2,2,0,2,45055,50000,1818,49756,0,0,0,0,0.00,0.00,0.00,0.00
2014-05-12 19:20:00,2,48844,0,0.00,2,2,0,2,43421,50000,1936,49769,0,0,0,0,0.00,0.00,0.00,0.00
2014-05-12 19:30:00,2,47797,0,0.00,2,2,0,2,44349,50000,2282,48473,0,0,0,0,0.00,0.00,0.00,0.00
2014-05-12 19:40:00,2,45617,0,0.00,2,2,0,2,33704,50000,5171,47799,0,0,0,0,0.00,0.00,0.00,0.00
2014-05-12 19:50:00,2,48599,0,0.00,2,2,0,2,45250,50000,1811,49552,0,0,0,0,0.00,0.00,0.00,0.00
2014-05-12 20:00:00,2,46081,0,0.00,2,2,0,2,39031,50000,4158,47706,0,0,0,0,0.00,0.00,0.00,0.00
2014-05-12 20:10:00,2,45821,0,0.00,2,2,0,2,31363,50000,6931,50000,0,0,0,0,0.00,0.00,0.00,0.00
2014-05-12 20:20:00,2,48666,0,0.00,2,2,0,2,44668,50000,1935,49940,0,0,0,0,0.00,0.00,0.00,0.00
2014-05-12 20:30:00,2,45646,0,0.00,2,2,0,2,35552,50000,4604,46445,0,0,0,0,0.00,0.00,0.00,0.00
2014-05-12 20:40:00,2,41952,0,0.00,2,2,0,2,27635,50000,8688,44474,0,0,0,0,0.00,0.00,0.00,0.00
2014-05-12 20:50:00,2,46689,0,0.00,2,2,0,2,40946,50000,2772,47320,0,0,0,0,0.00,0.00,0.00,0.00
2014-05-12 21:00:00,2,39525,0,0.00,2,2,0,2,30968,48899,6331,37924,0,0,0,0,0.00,0.00,0.00,0.00
2014-05-12 21:10:00,2,43679,0,0.00,2,2,0,2,34172,50000,5279,44228,0,0,0,0,0.00,0.00,0.00,0.00
2014-05-12 21:20:00,2,41204,0,0.00,2,2,0,2,32528,50000,6335,41128,0,0,0,0,0.00,0.00,0.00,0.00
2014-05-12 21:30:00,2,46664,0,0.00,2,2,0,2,36140,50000,4662,48137,0,0,0,0,0.00,0.00,0.00,0.00
2014-05-12 21:40:00,2,45120,0,0.00,2,2,0,2,37060,50000,4551,45632,0,0,0,0,0.00,0.00,0.00,0.00
2014-05-12 21:50:00,2,43331,0,0.00,2,2,0,2,30844,50000,5843,43755,0,0,0,0,0.00,0.00,0.00,0.00
2014-05-12 22:00:00,2,40531,0,0.00,2,2,0,2,30235,45761,5489,42174,0,0,0,0,0.00,0.00,0.00,0.00
2014-05-12 22:10:00,2,39589,0,0.00,2,2,0,2,30368,50000,5781,39641,0,0,0,0,0.00,0.00,0.00,0.00
2014-05-12 22:20:00,2,43597,0,0.00,2,2,0,2,34620,50000,5312,45174,0,0,0,0,0.00,0.00,0.00,0.00
2014-05-12 22:30:00,2,42556,0,0.00,2,2,0,2,33044,50000,5398,41750,0,0,0,0,0.00,0.00,0.00,0.00
2014-05-12 22:40:00,2,40650,0,0.00,2,2,0,2,30356,49306,6517,40134,0,0,0,0,0.00,0.00,0.00,0.00
2014-05-12 22:50:00,2,38188,0,0.00,2,2,0,2,27372,50000,7439,36592,0,0,0,0,0.00,0.00,0.00,0.00
2014-05-12 23:00:00,2,36082,0,0.00,2,2,0,2,28583,45458,5124,35524,0,0,0,0,0.00,0.00,0.00,0.00
2014-05-12 23:10:00,2,42363,0,0.00,2,2,0,2,31584,50000,4934,41606,0,0,0,0,0.00,0.00,0.00,0.00
2014-05-12 23:20:00,2,35123,0,0.00,2,2,0,2,20230,46186,7118,34770,0,0,0,0,0.00,0.00,0.00,0.00
2014-05-12 23:30:00,2,37770,0,0.00,2,2,0,2,29196,47494,5463,38403,0,0,0,0,0.00,0.00,0.00,0.00
2014-05-12 23:40:00,2,42426,0,0.00,2,2,0,2,33808,49733,5154,44074,0,0,0,0,0.00,0.00,0.00,0.00
2014-05-12 23:50:00,2,39480,0,0.00,2,2,0,2,30870,50000,6950,40206,0,0,0,0,0.00,0.00,0.00,0.00
